Date String (YYYY-MM-DD hh:mm:ss) UTC,Instrument flags,Ambient pressure (hPa),Sample flow (lpm),Bypass flow (lpm),Sample temperature (°C),Ambient temperature (°C),ASC tube jacket temperature (°C),LED temperature (°C),Box temperature (°C),Sample RH (%),Span deviation,Mass concentration (μg/m³),Mass concentration (μg/m³),Mass concentration (μg/m³)
DateTimeUTC,F1_M11,P_M11,Q1_M11,Q2_M11,T1_M11,T2_M11,T3_M11,T4_M11,T5_M11,U1_M11,ZSPAN_M11,X0_M11,X2_M11,X1_M11
2022-06-15 01:00:00,,0819.2,5.00,0.00,29.7,28.8,00.0,38.4,31.7,18.9,0000.0,0023.03,0006.94,0003.07
2022-06-15 01:01:00,,0819.3,5.00,0.00,29.7,28.9,00.0,38.4,31.7,18.9,0000.0,0022.68,0006.99,0003.09
2022-06-15 01:02:00,,0819.2,5.00,0.00,29.7,28.6,00.0,38.4,31.6,18.9,0000.0,0022.75,0007.11,0003.11
2022-06-15 01:03:00,,0819.2,5.01,0.00,29.6,27.7,00.0,38.4,31.3,19.1,0000.0,0022.25,0007.14,0003.12
2022-06-15 01:04:00,,0819.3,5.00,0.00,29.6,27.3,00.0,38.3,31.2,19.3,0000.0,0022.17,0007.13,0003.14
2022-06-15 01:05:00,,0819.3,5.01,0.00,29.5,27.2,00.0,38.3,31.2,19.4,0000.0,0022.78,0007.14,0003.14
2022-06-15 01:06:00,,0819.2,4.99,0.00,29.4,27.3,00.0,38.3,31.2,19.6,0000.0,0023.02,0007.19,0003.15
2022-06-15 01:07:00,,0819.3,5.01,0.00,29.4,27.5,00.0,38.3,31.3,19.7,0000.0,0022.93,0007.17,0003.15
2022-06-15 01:08:00,,0819.3,4.99,0.00,29.4,27.6,00.0,38.3,31.3,19.7,0000.0,0021.94,0007.14,0003.15
2022-06-15 01:09:00,,0819.3,5.00,0.00,29.4,27.8,00.0,38.3,31.3,19.7,0000.0,0021.23,0007.10,0003.16
2022-06-15 01:10:00,,0819.3,5.01,0.00,29.5,28.0,00.0,38.3,31.4,19.7,0000.0,0021.61,0007.15,0003.17
2022-06-15 01:11:00,,0819.3,5.01,0.00,29.5,28.2,00.0,38.3,31.5,19.7,0000.0,0021.65,0007.12,0003.17
2022-06-15 01:12:00,,0819.4,5.00,0.00,29.5,28.4,00.0,38.3,31.5,19.7,0000.0,0021.83,0007.02,0003.16
2022-06-15 01:13:00,,0819.4,5.00,0.00,29.6,28.5,00.0,38.4,31.5,19.6,0000.0,0022.02,0006.98,0003.16
2022-06-15 01:14:00,,0819.4,4.99,0.00,29.6,28.6,00.0,38.4,31.6,19.7,0000.0,0022.89,0006.96,0003.17
2022-06-15 01:15:00,,0819.5,4.99,0.00,29.6,28.8,00.0,38.4,31.7,19.6,0000.0,0023.38,0006.98,0003.17
2022-06-15 01:16:00,,0819.6,5.00,0.00,29.7,28.9,00.0,38.4,31.7,19.6,0000.0,0023.21,0007.08,0003.18
2022-06-15 01:17:00,,0819.6,5.02,0.00,29.7,28.9,00.0,38.4,31.7,19.6,0000.0,0023.76,0007.06,0003.17
2022-06-15 01:18:00,,0819.6,5.00,0.00,29.7,28.6,00.0,38.4,31.6,19.6,0000.0,0024.10,0007.03,0003.17
2022-06-15 01:19:00,,0819.5,5.00,0.00,29.6,27.7,00.0,38.4,31.3,19.8,0000.0,0023.99,0007.00,0003.16
2022-06-15 01:20:00,,0819.5,5.00,0.00,29.5,27.2,00.0,38.3,31.2,19.9,0000.0,0024.21,0007.04,0003.14
2022-06-15 01:21:00,,0819.5,5.01,0.00,29.5,27.2,00.0,38.3,31.2,20.0,0000.0,0023.57,0006.94,0003.13
2022-06-15 01:22:00,,0819.5,4.99,0.00,29.4,27.3,00.0,38.3,31.2,20.2,0000.0,0022.97,0006.94,0003.12
2022-06-15 01:23:00,,0819.5,5.00,0.00,29.4,27.5,00.0,38.3,31.2,20.4,0000.0,0022.65,0006.93,0003.10
2022-06-15 01:24:00,,0819.4,5.01,0.00,29.4,27.7,00.0,38.3,31.3,20.3,0000.0,0022.52,0006.89,0003.10
2022-06-15 01:25:00,,0819.5,4.99,0.00,29.4,27.9,00.0,38.3,31.3,20.3,0000.0,0022.23,0006.88,0003.08
2022-06-15 01:26:00,,0819.5,5.00,0.00,29.4,28.0,00.0,38.3,31.4,20.2,0000.0,0022.31,0006.87,0003.06
2022-06-15 01:27:00,,0819.5,5.00,0.00,29.5,28.2,00.0,38.3,31.4,20.1,0000.0,0021.96,0006.84,0003.07
2022-06-15 01:28:00,,0819.5,4.99,0.00,29.5,28.3,00.0,38.3,31.5,20.1,0000.0,0021.56,0006.92,0003.10
2022-06-15 01:29:00,,0819.6,5.00,0.00,29.5,28.5,00.0,38.3,31.5,20.1,0000.0,0020.91,0006.96,0003.11
2022-06-15 01:30:00,,0819.6,4.99,0.00,29.6,28.6,00.0,38.4,31.6,20.0,0000.0,0020.99,0006.99,0003.13
2022-06-15 01:31:00,,0819.5,4.99,0.00,29.6,28.7,00.0,38.4,31.7,20.0,0000.0,0020.47,0006.92,0003.13
2022-06-15 01:32:00,,0819.6,4.99,0.00,29.7,28.8,00.0,38.4,31.7,19.9,0000.0,0020.04,0006.90,0003.14
2022-06-15 01:33:00,,0819.7,5.02,0.00,29.7,28.9,00.0,38.4,31.8,19.8,0000.0,0020.22,0006.82,0003.15
2022-06-15 01:34:00,,0819.7,5.01,0.00,29.7,28.9,00.0,38.5,31.7,19.8,0000.0,0021.35,0006.87,0003.18
2022-06-15 01:35:00,,0819.7,4.99,0.00,29.7,28.1,00.0,38.4,31.5,19.8,0000.0,0021.75,0007.00,0003.19
2022-06-15 01:36:00,,0819.7,5.00,0.00,29.6,27.2,00.0,38.3,31.2,19.9,0000.0,0021.39,0006.98,0003.19
2022-06-15 01:37:00,,0819.7,5.01,0.00,29.5,27.1,00.0,38.3,31.2,19.9,0000.0,0020.94,0006.95,0003.20
2022-06-15 01:38:00,,0819.7,4.99,0.00,29.5,27.1,00.0,38.3,31.2,20.0,0000.0,0021.33,0006.91,0003.20
2022-06-15 01:39:00,,0819.6,5.01,0.00,29.4,27.3,00.0,38.3,31.2,20.1,0000.0,0021.77,0006.81,0003.21
2022-06-15 01:40:00,,0819.7,4.99,0.00,29.4,27.5,00.0,38.3,31.2,20.2,0000.0,0022.35,0006.81,0003.20
2022-06-15 01:41:00,,0819.6,5.00,0.00,29.4,27.7,00.0,38.3,31.3,20.2,0000.0,0022.90,0006.84,0003.21
2022-06-15 01:42:00,,0819.6,4.99,0.00,29.4,27.9,00.0,38.3,31.3,20.2,0000.0,0023.10,0006.92,0003.22
2022-06-15 01:43:00,,0819.5,5.00,0.00,29.4,28.1,00.0,38.3,31.4,20.3,0000.0,0023.75,0006.89,0003.23
2022-06-15 01:44:00,,0819.6,5.01,0.00,29.5,28.2,00.0,38.3,31.4,20.3,0000.0,0022.91,0006.88,0003.24
2022-06-15 01:45:00,,0819.7,5.00,0.00,29.5,28.4,00.0,38.3,31.5,20.3,0000.0,0021.66,0006.91,0003.23
2022-06-15 01:46:00,,0819.7,4.98,0.00,29.5,28.6,00.0,38.3,31.5,20.3,0000.0,0021.21,0006.87,0003.22
2022-06-15 01:47:00,,0819.7,5.00,0.00,29.6,28.7,00.0,38.4,31.6,20.3,0000.0,0021.81,0006.88,0003.21
2022-06-15 01:48:00,,0819.8,5.00,0.00,29.6,28.8,00.0,38.4,31.7,20.2,0000.0,0022.01,0006.93,0003.22
2022-06-15 01:49:00,,0819.9,5.00,0.00,29.7,28.9,00.0,38.4,31.7,20.1,0000.0,0021.69,0006.88,0003.21
2022-06-15 01:50:00,,0819.9,5.00,0.00,29.7,29.0,00.0,38.5,31.7,20.1,0000.0,0020.92,0006.88,0003.20
2022-06-15 01:51:00,,0819.9,5.01,0.00,29.7,28.6,00.0,38.4,31.7,20.0,0000.0,0020.76,0006.89,0003.21
2022-06-15 01:52:00,,0819.9,5.00,0.00,29.7,27.7,00.0,38.4,31.3,20.1,0000.0,0020.54,0006.92,0003.20
2022-06-15 01:53:00,,0819.8,5.00,0.00,29.5,27.2,00.0,38.3,31.2,20.2,0000.0,0020.44,0006.89,0003.20
2022-06-15 01:54:00,,0819.8,4.99,0.00,29.5,27.1,00.0,38.3,31.1,20.2,0000.0,0020.29,0006.90,0003.20
2022-06-15 01:55:00,,0819.8,5.01,0.00,29.4,27.2,00.0,38.3,31.1,20.3,0000.0,0020.51,0006.97,0003.19
2022-06-15 01:56:00,,0819.9,4.99,0.00,29.4,27.4,00.0,38.3,31.2,20.3,0000.0,0020.77,0006.95,0003.18
2022-06-15 01:57:00,,0819.9,4.99,0.00,29.4,27.6,00.0,38.3,31.3,20.3,0000.0,0021.24,0006.95,0003.18
2022-06-15 01:58:00,,0819.9,5.00,0.00,29.4,27.8,00.0,38.3,31.3,20.3,0000.0,0020.60,0006.95,0003.18
2022-06-15 01:59:00,,0819.9,5.00,0.00,29.4,28.0,00.0,38.3,31.3,20.2,0000.0,0020.03,0006.89,0003.17
